Location: Newark
(51.0500°N, 12.4500°E)
Time: 10:34:31
(UTC+00:00)

Vanguard 1 - Pass Details

Date: 21 February 2020
Orbit: 649 x 3833 km, 34.2° (Epoch: 05 April)

Event Time Altitude Azimuth Distance (km) Brightness Sun altitude
Rises 12:46:47 0° 268° (W) 6,311 14.5 25.7°
Reaches altitude 10° 12:53:09 10° 254° (WSW) 4,616 14.2 25.3°
Maximum altitude 13:00:11 18° 217° (SW) 3,180 14.9 24.9°
Drops below altitude 10° 13:05:18 10° 177° (S) 3,169 13.8 24.5°
Sets 13:08:33 0° 158° (SSE) 3,752 13.6 24.3°
